"Pseudo-MPEC" for CEJK2T2

Created 2026 Apr 17 11:35:11 UT using Find_Orb

Click here for an explanation of pseudo-MPECs

 
 Astrometry: 
     CEJK2T2*1C2026 04 16.43826316 41 36.200+05 20 37.97   ~4GB5 19.55GVNEOCPG96
     CEJK2T2 1C2026 04 16.44343416 41 50.676+05 19 22.40   ~4GB5       VNEOCPG96
     CEJK2T2 1C2026 04 16.44859316 42 05.108+05 18 07.56   ~4GB5x20.26GVNEOCPG96
     CEJK2T2  C2026 04 16.46153316 42 34.824+05 14 06.98   ~4GBo 20.1 GWNEOCPH01
     CEJK2T2  C2026 04 16.46215216 43 00.677+05 12 27.15   ~4GEK 19.72GVNEOCPU74
     CEJK2T2  C2026 04 16.46463216 42 43.539+05 13 21.67   ~4GBo 20.3 GWNEOCPH01
     CEJK2T2  C2026 04 16.46542616 43 09.912+05 11 37.86   ~4GEK 19.72GVNEOCPU74
     CEJK2T2  C2026 04 16.47616116 43 15.713+05 10 34.35   ~4GBo 19.9 GWNEOCPH01
     CEJK2T2  C2026 04 16.48267516 43 33.789+05 09 00.19   ~4GBo 19.8 GWNEOCPH01
     CEJK2T2 1C2026 04 16.48289016 43 40.580+05 09 47.92   ~4GBo 19.67GVNEOCPI52
     CEJK2T2 1C2026 04 16.48311516 43 41.207+05 09 44.46   ~4GBo 19.76GVNEOCPI52
     CEJK2T2 1C2026 04 16.48333116 43 41.790+05 09 41.00   ~4GBo 20.05GVNEOCPI52
     CEJK2T2 1C2026 04 16.48354716 43 42.366+05 09 38.09   ~4GBo 19.91GVNEOCPI52
     CEJK2T2 KB2026 04 17.03938317 09 09.80 +03 21 10.9    ~4H1Z 20.6 GVNEOCPL01
     CEJK2T2 KB2026 04 17.04594617 09 20.32 +03 20 15.4    ~4H1Z 20.6 GVNEOCPL01
     CEJK2T2 |C2026 04 17.30631017 17 10.310+03 15 04.20   ~4H8K 20.4 GVNEOCP807
     CEJK2T2 |C2026 04 17.31504017 17 20.330+03 13 58.30   ~4H8K 20.3 GVNEOCP807
     CEJK2T2 |C2026 04 17.32377017 17 30.310+03 12 51.60   ~4H8K 20.9 GVNEOCP807
     CEJK2T2 KC2026 04 17.34354317 18 13.01 +02 43 48.3    ~4H95 21.3 GVNEOCPH21
     CEJK2T2 KC2026 04 17.34633917 18 16.29 +02 43 29.2    ~4H95 21.3 GVNEOCPH21
     CEJK2T2 KC2026 04 17.34913517 18 19.58 +02 43 10.0    ~4H95 21.6 GVNEOCPH21
     CEJK2T2 KC2026 04 17.35444617 18 25.74 +02 42 33.9    ~4H95 21.6 GVNEOCPH21

Station data:
(807) Cerro Tololo Observatory, La Serena  (S30.169133 W70.805900)  Chile.
   Observer R. Holmes. 0.61-m f/6.5 astrograph + CCD.
(G96) Mt. Lemmon Survey  (N32.442729 W110.788720)  US/Arizona.  Observer E.
   J. Christensen. Measurers T. Beuden, V. F. Carvajal, D. Fay, J. B.
   Fazekas, D. C. Fuls, A. R. Gibbs, A. D. Grauer, H. Gröller, J. K. Hogan,
   R. A. Kowalski, S. M. Larson, G. J. Leonard, D. Rankin, R. L. Seaman, F.
   C. Shelly, K. W. Wierzchoś. 1.5-m reflector + 10K CCD.
(H01) Magdalena Ridge Observatory, Socorro  (N33.984833 W107.189333)  US/New
   Mexico.  Observers W. H. Ryan, E. V. Ryan. Measurer W. H. Ryan. 2.4-m
   f/8.9 reflector + CCD.
(H21) Astronomical Research Observatory, Westfield  (N39.483054 W87.968270)
   US/Illinois.  Observer R. Holmes. Measurers S. Foglia, L. Buzzi, T.
   Linder, R. Holmes. 0.40-m f/5.32 astrograph + CCD.
(I52) Steward Observatory, Mt. Lemmon Station  (N32.442570 W110.788920)
   US/Arizona. Measurers T. Beuden, V. F. Carvajal, D. Fay, J. B. Fazekas, D.
   C. Fuls, A. R. Gibbs, A. D. Grauer, H. Gröller, J. K. Hogan, R. A.
   Kowalski, S. M. Larson, G. J. Leonard, D. Rankin, R. L. Seaman, F. C.
   Shelly, K. W. Wierzchoś. 1.0-m prime focus + CCD.
(L01) Višnjan Observatory, Tičan  (N45.290897 E13.749300)  Croatia.
   Observers K. Korlević, L. Poropat. Measurer K. Korlevic. 1.0-m f/2.9
   reflector + CCD.
(U74) JPL SynTrack Robotic Telescope 2, Auberry  (N37.070341 W119.412800)
   US/California.  Observers N. Saini, C. Zhai, R. Trahan, M. Zhan, M. Shao.
   0.36-m f/2.2 Schmidt.

Orbital elements:  CEJK2T2
   Perigee 2026 Apr 14.881877 +/- 0.000311 TT = 21:09:54.1 (JD 2461145.381877)
Epoch 2026 Apr 17.0 TT = JDT 2461147.5                           AutoNEOCP
q283569.8017 +/- 99.8               (J2000 equator)
H   30.20 G 0.15                    Peri.   94.044452 +/- 0.0048
                                    Node    89.266174 +/- 0.00055
e  13.03129828 +/- 0.011            Incl.   16.893911 +/- 0.0006
21 of 22 observations 2026 Apr. 16-17 (22.0 hr); mean residual 0".52
Residuals in arcseconds: 
260416 G96  1.6+  .37-    260416 H01  .15-  .12+    260417 807  .14+  .34+    
260416 G96  1.4-  .27+    260416 I52  .04+  .18+    260417 807  1.3+  .19-    
260416 G96( 3.3-  1.2+)   260416 I52  .19+  .04-    260417 H21  .49-  .18+    
260416 H01  .06+  .16+    260416 I52  .04+  .39-    260417 H21  .51-  .18+    
260416 U74  .79-  1.3+    260416 I52  .20-  .19-    260417 H21  .17-  .06+    
260416 H01  .37+  .05+    260417 L01  .12-  .33-    260417 H21  .35-  .13+    
260416 U74  .26+  1.1-    260417 L01  .12-  .24-    
260416 H01  .10+  .18+    260417 807  .07+  .14-    

Ephemerides (geocentric):
Date (UTC) HH   RA             Dec           delta  r     elong  mag " sig PA
---- --------  ------------   ------------  ------ ------ -----  --- --------
2026 04 17 12  17 21 47.858   +02 39 50.82  998257 1.0075 123.4 21.4 .073 117
2026 04 17 13  17 22 46.824   +02 35 24.47  .00677 1.0076 123.3 21.4 .065 112
2026 04 17 14  17 23 44.108   +02 31 05.40  .00687 1.0076 123.1 21.5 .057 106
2026 04 17 15  17 24 39.780   +02 26 53.32  .00696 1.0077 122.9 21.5 .050  98
2026 04 17 16  17 25 33.903   +02 22 47.96  .00706 1.0077 122.7 21.5 .043  88
2026 04 17 17  17 26 26.540   +02 18 49.06  .00716 1.0078 122.6 21.6 .038  76
2026 04 17 18  17 27 17.750   +02 14 56.38  .00725 1.0078 122.4 21.6 .036  60
2026 04 17 19  17 28 07.589   +02 11 09.69  .00735 1.0079 122.3 21.6 .035  44
2026 04 17 20  17 28 56.108   +02 07 28.75  .00745 1.0079 122.1 21.7 .038  28
2026 04 17 21  17 29 43.359   +02 03 53.36  .00755 1.0080 122.0 21.7 .043  14
2026 04 17 22  17 30 29.389   +02 00 23.32  .00764 1.0080 121.9 21.7 .049   4
2026 04 17 23  17 31 14.244   +01 56 58.43  .00774 1.0081 121.7 21.8 .057 176
2026 04 18 00  17 31 57.967   +01 53 38.50  .00784 1.0081 121.6 21.8 .066 170
2026 04 18 01  17 32 40.598   +01 50 23.37  .00794 1.0082 121.5 21.8 .075 165
2026 04 18 02  17 33 22.178   +01 47 12.86  .00803 1.0082 121.3 21.8 .084 162
2026 04 18 03  17 34 02.744   +01 44 06.81  .00813 1.0083 121.2 21.9 .093 159
2026 04 18 04  17 34 42.331   +01 41 05.07  .00823 1.0083 121.1 21.9 .103 156
2026 04 18 05  17 35 20.974   +01 38 07.50  .00833 1.0083 121.0 21.9 .113 154
2026 04 18 06  17 35 58.705   +01 35 13.94  .00843 1.0084 120.9 22.0 .123 152
2026 04 18 07  17 36 35.554   +01 32 24.28  .00852 1.0084 120.8 22.0 .133 150
2026 04 18 08  17 37 11.552   +01 29 38.37  .00862 1.0085 120.7 22.0 .143 149
2026 04 18 09  17 37 46.727   +01 26 56.10  .00872 1.0085 120.6 22.0 .153 148
2026 04 18 10  17 38 21.107   +01 24 17.34  .00882 1.0086 120.5 22.1 .163 147
2026 04 18 11  17 38 54.716   +01 21 42.00  .00892 1.0086 120.4 22.1 .174 146
2026 04 18 12  17 39 27.581   +01 19 09.94  .00901 1.0087 120.3 22.1 .184 145
2026 04 18 13  17 39 59.724   +01 16 41.08  .00911 1.0087 120.2 22.1 .194 144
2026 04 18 14  17 40 31.169   +01 14 15.32  .00921 1.0088 120.2 22.2 .204 143
2026 04 18 15  17 41 01.938   +01 11 52.55  .00931 1.0088 120.1 22.2 .214 142
2026 04 18 16  17 41 32.051   +01 09 32.68  .00941 1.0089 120.0 22.2 .224 142
2026 04 18 17  17 42 01.528   +01 07 15.64  .00950 1.0089 119.9 22.2 .234 141
2026 04 18 18  17 42 30.390   +01 05 01.32  .00960 1.0090 119.9 22.3 .244 141
2026 04 18 19  17 42 58.654   +01 02 49.65  .00970 1.0090 119.8 22.3 .254 140
2026 04 18 20  17 43 26.339   +01 00 40.56  .00980 1.0091 119.7 22.3 .264 140
2026 04 18 21  17 43 53.461   +00 58 33.97  .00990 1.0092 119.7 22.3 .273 139
2026 04 18 22  17 44 20.036   +00 56 29.79  .01000 1.0092 119.6 22.4 .283 139
2026 04 18 23  17 44 46.082   +00 54 27.97  .01009 1.0093 119.5 22.4 .293 138
2026 04 19 00  17 45 11.612   +00 52 28.44  .01019 1.0093 119.5 22.4 .303 138
2026 04 19 01  17 45 36.643   +00 50 31.13  .01029 1.0094 119.4 22.4 .312 137
2026 04 19 02  17 46 01.186   +00 48 35.98  .01039 1.0094 119.4 22.5 .322 137
2026 04 19 03  17 46 25.258   +00 46 42.93  .01049 1.0095 119.3 22.5 .331 137
2026 04 19 04  17 46 48.869   +00 44 51.93  .01059 1.0095 119.2 22.5 .341 136
2026 04 19 05  17 47 12.034   +00 43 02.90  .01069 1.0096 119.2 22.5 .350 136
2026 04 19 06  17 47 34.764   +00 41 15.81  .01078 1.0096 119.1 22.5 .359 136
2026 04 19 07  17 47 57.070   +00 39 30.60  .01088 1.0097 119.1 22.6 .368 136
2026 04 19 08  17 48 18.965   +00 37 47.22  .01098 1.0097 119.0 22.6 .378 135
2026 04 19 09  17 48 40.459   +00 36 05.62  .01108 1.0098 119.0 22.6 .387 135
2026 04 19 10  17 49 01.563   +00 34 25.75  .01118 1.0098 119.0 22.6 .396 135
2026 04 19 11  17 49 22.286   +00 32 47.58  .01128 1.0099 118.9 22.7 .405 135